Olympia, WA

11:10 PM PST on November 17, 2017 (GMT -0800)
Olympia

Weather History for KOLM - November, 2011

Change the Weather History Date:

Friday, November 11, 2011

  Actual Average Record
Temperature  
Mean Temperature 42 °F 44 °F  
Max Temperature 48 °F 51 °F 64 °F (1990)
Min Temperature 35 °F 37 °F 18 °F (1985)
Degree Days  
Heating Degree Days 23 21  
Month to date heating degree days 260 215  
Since 1 July heating degree days 1028 1009  
Cooling Degree Days 0 0  
Month to date cooling degree days 0 0  
Year to date cooling degree days 59 106  
Moisture  
Dew Point 38 °F    
Average Humidity 83    
Maximum Humidity 100    
Minimum Humidity 65    
Precipitation  
Precipitation 0.38 in 0.29 in 1.81 in (1958)
Month to date precipitation 0.88 2.87  
Year to date precipitation 38.10 36.78  
Sea Level Pressure  
Sea Level Pressure 29.65 in    
Wind  
Wind Speed 9 mph (SW)    
Max Wind Speed 26 mph    
Max Gust Speed 39 mph    
Visibility 8 miles    
Events Rain    
T = Trace of Precipitation, MM = Missing Value Source: NWS Daily Summary

Daily Weather History Graph

Daily Weather History Graph

Search for Another Location

Airport or City:

Trip Planner

Search our weather history database for the weather conditions in past years. The results will help you decide how hot, cold, wet, or windy it might be!

Date:

Astronomy

Nov. 11, 2011 Rise Set
Actual Time 7:08 AM PST 4:41 PM PST
Civil Twilight 6:36 AM PST 5:14 PM PST
Nautical Twilight 5:59 AM PST 5:51 PM PST
Astronomical Twilight 5:23 AM PST 6:26 PM PST
Moon 5:08 PM PST (11/11) 8:08 AM PST (11/11)
Length of Visible Light 10h 38m
Length of Day
9h 33m
Full, 99% of the Moon is Illuminated
Nov 11
Full
Nov 18
Last Quarter
Nov 24
New
Dec 2
First Quarter
Dec 10
Full

Hourly Weather History & Observations

Time (PST) Temp. Windchill Dew Point Humidity Pressure Visibility Wind Dir Wind Speed Gust Speed Precip Events Conditions
12:54 AM 39.9 °F 35.8 °F 37.0 °F 89% 29.90 in 10.0 mi SW 5.8 mph - N/A   Clear
1:54 AM 39.9 °F 35.8 °F 37.0 °F 89% 29.89 in 10.0 mi SW 5.8 mph - N/A   Clear
2:54 AM 39.0 °F 34.8 °F 36.0 °F 89% 29.87 in 10.0 mi SW 5.8 mph - N/A   Clear
3:54 AM 41.0 °F 36.4 °F 36.0 °F 82% 29.85 in 10.0 mi SW 6.9 mph - N/A   Overcast
4:54 AM 41.0 °F 39.0 °F 35.1 °F 79% 29.82 in 10.0 mi West 3.5 mph - N/A   Overcast
5:54 AM 39.0 °F 34.0 °F 34.0 °F 82% 29.79 in 10.0 mi WSW 6.9 mph - N/A   Mostly Cloudy
6:54 AM 39.0 °F 32.8 °F 34.0 °F 82% 29.78 in 10.0 mi WSW 9.2 mph - N/A   Overcast
7:54 AM 37.9 °F 32.1 °F 34.0 °F 86% 29.77 in 10.0 mi SW 8.1 mph - N/A   Scattered Clouds
8:54 AM 42.1 °F 38.4 °F 35.1 °F 76% 29.73 in 10.0 mi WSW 5.8 mph - N/A   Overcast
9:54 AM 45.0 °F 39.7 °F 35.1 °F 68% 29.69 in 10.0 mi SW 10.4 mph - N/A   Overcast
10:54 AM 46.0 °F 43.9 °F 37.0 °F 71% 29.67 in 10.0 mi SW 4.6 mph - N/A   Overcast
11:54 AM 46.9 °F - 39.0 °F 74% 29.61 in 8.0 mi South 15.0 mph - 0.00 in Rain Light Rain
12:54 PM 46.0 °F 41.0 °F 41.0 °F 83% 29.56 in 4.0 mi SW 10.4 mph 18.4 mph 0.06 in Rain Rain
1:04 PM 44.6 °F 37.8 °F 42.8 °F 93% 29.58 in 2.5 mi WNW 15.0 mph 20.7 mph 0.04 in Rain Heavy Rain
1:11 PM 46.4 °F 40.7 °F 42.8 °F 87% 29.56 in 2.0 mi SSW 12.7 mph 20.7 mph 0.09 in Rain Rain
1:24 PM 44.6 °F 39.7 °F 42.8 °F 93% 29.54 in 4.0 mi SSW 9.2 mph - 0.13 in Rain Light Rain
1:39 PM 44.6 °F 38.8 °F 42.8 °F 93% 29.54 in 4.0 mi South 11.5 mph - 0.16 in Rain Rain
1:54 PM 46.0 °F 41.0 °F 44.1 °F 93% 29.55 in 5.0 mi SSW 10.4 mph - 0.19 in Rain Light Rain
2:36 PM 46.4 °F 41.1 °F 44.6 °F 93% 29.53 in 6.0 mi South 11.5 mph - N/A Rain Light Rain
2:46 PM 44.6 °F 40.2 °F 44.6 °F 100% 29.53 in 4.0 mi South 8.1 mph - 0.06 in Rain Light Rain
2:54 PM 45.0 °F 40.1 °F 44.1 °F 97% 29.55 in 4.0 mi SW 9.2 mph - 0.07 in Rain Light Rain
3:01 PM 46.4 °F 43.5 °F 44.6 °F 93% 29.55 in 6.0 mi Variable 5.8 mph 20.7 mph 0.01 in Rain Light Rain
3:22 PM 46.4 °F 43.5 °F 42.8 °F 87% 29.55 in 10.0 mi SW 5.8 mph - 0.01 in   Overcast
3:54 PM 46.9 °F - 41.0 °F 80% 29.57 in 10.0 mi WSW 10.4 mph 19.6 mph 0.01 in   Overcast
4:14 PM 46.4 °F 40.1 °F 37.4 °F 71% 29.57 in 10.0 mi West 15.0 mph 34.5 mph N/A   Mostly Cloudy
4:54 PM 45.0 °F 38.9 °F 35.1 °F 68% 29.56 in 10.0 mi West 12.7 mph 23.0 mph N/A   Scattered Clouds
5:54 PM 45.0 °F 38.2 °F 33.1 °F 63% 29.62 in 10.0 mi West 15.0 mph 25.3 mph N/A   Clear
6:54 PM 43.0 °F 38.2 °F 34.0 °F 71% 29.63 in 10.0 mi SSW 8.1 mph - N/A   Scattered Clouds
7:54 PM 42.1 °F 36.1 °F 35.1 °F 76% 29.62 in 10.0 mi SW 10.4 mph - 0.00 in   Mostly Cloudy
8:54 PM 42.1 °F 34.9 °F 36.0 °F 79% 29.63 in 10.0 mi SW 13.8 mph 19.6 mph 0.00 in   Mostly Cloudy
9:21 PM 41.0 °F 33.9 °F 37.4 °F 87% 29.63 in 5.0 mi SSW 12.7 mph - 0.03 in Rain Light Rain
9:50 PM 41.0 °F 33.9 °F 37.4 °F 87% 29.64 in 10.0 mi SSW 12.7 mph - 0.05 in   Scattered Clouds
9:54 PM 41.0 °F 33.9 °F 37.0 °F 86% 29.65 in 10.0 mi SW 12.7 mph - 0.05 in   Mostly Cloudy
10:54 PM 39.0 °F 32.8 °F 35.1 °F 86% 29.68 in 10.0 mi SW 9.2 mph - N/A   Clear
11:54 PM 39.9 °F 37.8 °F 34.0 °F 79% 29.71 in 10.0 mi WSW 3.5 mph - N/A   Clear